When you browse on this site, cookies collect data to enhance your experience and personalize the content and advertising you see.
Visit our Privacy Policy to learn more. By continuing to use the site, you agree to this use of cookies and data.
  • In Austria
  • List of Countries
  • For 7 days
  • Water Temperature
  • Satellite Maps
  • Weather Map
  • News
  • Weather Widgets
  • user-avatar
    Login

    Hourly Weather Opole

    Today, 21 May, Tuesday

    Time Temperature Precipitation Wind Pressure Humidity
    00:00 +12°C° 0 mm 3 mps 738 mmHg 87%
    01:00 +12°C° 0 mm 3 mps 738 mmHg 89%
    02:00 +12°C° 0 mm 2 mps 738 mmHg 90%
    03:00 +12°C° 0 mm 2 mps 738 mmHg 91%
    04:00 +12°C° 0 mm 2 mps 738 mmHg 91%
    05:00 +13°C° 0 mm 2 mps 738 mmHg 86%
    06:00 +15°C° 0 mm 2 mps 738 mmHg 80%
    07:00 +16°C° 0 mm 2 mps 738 mmHg 74%
    08:00 +17°C° 0 mm 2 mps 738 mmHg 69%
    09:00 +19°C° 0 mm 2 mps 738 mmHg 63%
    10:00 +21°C° 0 mm 1 mps 738 mmHg 58%
    11:00 +22°C° 0 mm 1 mps 738 mmHg 56%
    12:00 +22°C° 0 mm 1 mps 738 mmHg 54%
    13:00 +23°C° 0 mm 1 mps 738 mmHg 52%
    14:00 +23°C° 0 mm 1 mps 738 mmHg 53%
    15:00 +23°C° 0 mm 2 mps 737 mmHg 54%
    16:00 +23°C° 0 mm 2 mps 737 mmHg 56%
    17:00 +20°C° 0.2 mm 2 mps 737 mmHg 64%
    18:00 +19°C° 0.2 mm 2 mps 737 mmHg 73%
    19:00 +18°C° 0.2 mm 2 mps 737 mmHg 81%
    20:00 +17°C° 0.5 mm 3 mps 737 mmHg 84%
    21:00 +16°C° 0.5 mm 3 mps 737 mmHg 88%
    22:00 +14°C° 0.5 mm 3 mps 737 mmHg 91%
    23:00 +14°C° 0.5 mm 3 mps 737 mmHg 91%

    Tomorrow, 22 May, Wednesday

    Time Temperature Precipitation Wind Pressure Humidity
    00:00 +14°C° 0.5 mm 4 mps 737 mmHg 92%
    01:00 +14°C° 0.5 mm 4 mps 737 mmHg 93%
    02:00 +14°C° 0.4 mm 4 mps 737 mmHg 94%
    03:00 +14°C° 0.4 mm 4 mps 737 mmHg 95%
    04:00 +14°C° 0.4 mm 4 mps 737 mmHg 95%
    05:00 +14°C° 0.4 mm 4 mps 737 mmHg 95%
    06:00 +14°C° 0.4 mm 5 mps 737 mmHg 94%
    07:00 +14°C° 0.4 mm 5 mps 738 mmHg 94%
    08:00 +15°C° 0.3 mm 5 mps 738 mmHg 92%
    09:00 +15°C° 0.3 mm 6 mps 738 mmHg 90%
    10:00 +15°C° 0.3 mm 6 mps 739 mmHg 89%
    11:00 +15°C° 0.7 mm 6 mps 739 mmHg 89%
    12:00 +15°C° 0.7 mm 6 mps 739 mmHg 89%
    13:00 +15°C° 0.7 mm 5 mps 739 mmHg 89%
    14:00 +15°C° 1 mm 6 mps 739 mmHg 90%
    15:00 +15°C° 1 mm 7 mps 740 mmHg 91%
    16:00 +15°C° 1 mm 7 mps 740 mmHg 91%
    17:00 +15°C° 1 mm 7 mps 740 mmHg 92%
    18:00 +13°C° 1 mm 8 mps 740 mmHg 93%
    19:00 +13°C° 1 mm 8 mps 741 mmHg 94%
    20:00 +13°C° 0.6 mm 8 mps 741 mmHg 94%
    21:00 +13°C° 0.6 mm 8 mps 742 mmHg 94%
    22:00 +12°C° 0.6 mm 8 mps 742 mmHg 94%
    23:00 +12°C° 0.8 mm 8 mps 742 mmHg 95%

    Day after tomorrow, 23 May, Thursday

    Time Temperature Precipitation Wind Pressure Humidity
    00:00 +12°C° 0.8 mm 7 mps 742 mmHg 95%
    01:00 +12°C° 0.8 mm 7 mps 743 mmHg 95%
    02:00 +12°C° 0.8 mm 7 mps 743 mmHg 95%
    03:00 +11°C° 0.8 mm 7 mps 743 mmHg 95%
    04:00 +11°C° 0.8 mm 7 mps 744 mmHg 95%
    05:00 +11°C° 1.9 mm 7 mps 744 mmHg 95%
    06:00 +10°C° 1.9 mm 7 mps 744 mmHg 95%
    07:00 +10°C° 1.9 mm 7 mps 745 mmHg 94%
    08:00 +10°C° 0.5 mm 7 mps 745 mmHg 94%
    09:00 +10°C° 0.5 mm 7 mps 746 mmHg 93%
    10:00 +10°C° 0.5 mm 7 mps 746 mmHg 92%
    11:00 +10°C° 0.1 mm 7 mps 747 mmHg 90%
    12:00 +10°C° 0.1 mm 6 mps 747 mmHg 89%
    13:00 +10°C° 0.1 mm 6 mps 747 mmHg 87%
    14:00 +11°C° 0 mm 6 mps 747 mmHg 81%
    15:00 +13°C° 0 mm 5 mps 747 mmHg 76%
    16:00 +13°C° 0 mm 5 mps 747 mmHg 70%
    17:00 +13°C° 0 mm 4 mps 747 mmHg 72%
    18:00 +14°C° 0 mm 2 mps 747 mmHg 75%
    19:00 +14°C° 0 mm 1 mps 747 mmHg 77%
    20:00 +13°C° 0 mm 1 mps 747 mmHg 79%
    21:00 +12°C° 0 mm 2 mps 747 mmHg 81%
    22:00 +10°C° 0 mm 2 mps 748 mmHg 82%
    23:00 +10°C° 0 mm 2 mps 748 mmHg 85%

    24 May, Friday

    Time Temperature Precipitation Wind Pressure Humidity
    00:00 +9°C° 0 mm 2 mps 747 mmHg 88%
    01:00 +8°C° 0 mm 2 mps 747 mmHg 91%
    02:00 +7°C° 0 mm 2 mps 747 mmHg 92%
    03:00 +7°C° 0 mm 2 mps 747 mmHg 92%
    04:00 +6°C° 0 mm 2 mps 747 mmHg 93%
    05:00 +8°C° 0 mm 2 mps 747 mmHg 87%
    06:00 +10°C° 0 mm 2 mps 747 mmHg 80%
    07:00 +13°C° 0 mm 2 mps 747 mmHg 74%
    08:00 +14°C° 0 mm 2 mps 747 mmHg 68%
    09:00 +15°C° 0 mm 2 mps 746 mmHg 61%
    10:00 +17°C° 0 mm 2 mps 746 mmHg 55%
    11:00 +17°C° 0 mm 2 mps 746 mmHg 54%
    12:00 +18°C° 0 mm 2 mps 745 mmHg 52%
    13:00 +19°C° 0 mm 2 mps 745 mmHg 51%
    14:00 +19°C° 0 mm 2 mps 745 mmHg 51%
    15:00 +20°C° 0 mm 1 mps 744 mmHg 52%
    16:00 +20°C° 0 mm 1 mps 744 mmHg 52%
    17:00 +19°C° 0 mm 1 mps 743 mmHg 58%
    18:00 +18°C° 0 mm 1 mps 743 mmHg 64%
    19:00 +15°C° 0 mm 0 mps 743 mmHg 70%
    20:00 +15°C° 0 mm 1 mps 743 mmHg 73%
    21:00 +13°C° 0 mm 1 mps 743 mmHg 75%
    22:00 +12°C° 0 mm 1 mps 743 mmHg 78%
    23:00 +12°C° 0 mm 1 mps 743 mmHg 79%

    25 May, Saturday

    Time Temperature Precipitation Wind Pressure Humidity
    00:00 +12°C° 0 mm 1 mps 743 mmHg 80%
    01:00 +10°C° 0 mm 2 mps 743 mmHg 81%
    02:00 +10°C° 0 mm 2 mps 743 mmHg 81%
    03:00 +10°C° 0 mm 2 mps 743 mmHg 82%
    04:00 +9°C° 0 mm 2 mps 742 mmHg 82%
    05:00 +12°C° 0 mm 2 mps 742 mmHg 77%
    06:00 +14°C° 0 mm 2 mps 743 mmHg 73%
    07:00 +16°C° 0 mm 2 mps 743 mmHg 68%
    08:00 +18°C° 0 mm 2 mps 743 mmHg 65%
    09:00 +19°C° 0 mm 2 mps 743 mmHg 62%
    10:00 +21°C° 0 mm 2 mps 743 mmHg 58%
    11:00 +21°C° 0.6 mm 2 mps 742 mmHg 61%
    12:00 +21°C° 0.6 mm 2 mps 742 mmHg 63%
    13:00 +21°C° 0.6 mm 3 mps 742 mmHg 65%
    14:00 +21°C° 0.4 mm 3 mps 742 mmHg 66%
    15:00 +21°C° 0.4 mm 2 mps 742 mmHg 66%
    16:00 +21°C° 0.4 mm 2 mps 742 mmHg 66%
    17:00 +20°C° 0.8 mm 2 mps 742 mmHg 73%
    18:00 +19°C° 0.8 mm 2 mps 742 mmHg 79%
    19:00 +17°C° 0.8 mm 2 mps 742 mmHg 86%
    20:00 +16°C° 0.1 mm 2 mps 742 mmHg 88%
    21:00 +15°C° 0.1 mm 2 mps 742 mmHg 89%
    22:00 +14°C° 0.1 mm 2 mps 743 mmHg 91%
    23:00 +14°C° 0 mm 2 mps 743 mmHg 93%

    26 May, Sunday

    Time Temperature Precipitation Wind Pressure Humidity
    00:00 +13°C° 0 mm 2 mps 743 mmHg 94%
    01:00 +13°C° 0 mm 2 mps 743 mmHg 95%
    02:00 +13°C° 1.1 mm 2 mps 743 mmHg 96%
    03:00 +13°C° 1.1 mm 2 mps 743 mmHg 96%
    04:00 +13°C° 1.1 mm 2 mps 743 mmHg 97%
    05:00 +13°C° 0.8 mm 1 mps 743 mmHg 96%
    06:00 +13°C° 0.8 mm 1 mps 743 mmHg 95%
    07:00 +14°C° 0.8 mm 1 mps 743 mmHg 94%
    08:00 +15°C° 0.1 mm 1 mps 743 mmHg 87%
    09:00 +17°C° 0.1 mm 2 mps 743 mmHg 81%
    10:00 +18°C° 0.1 mm 2 mps 743 mmHg 74%
    11:00 +18°C° 0.8 mm 3 mps 743 mmHg 74%
    12:00 +19°C° 0.8 mm 4 mps 743 mmHg 74%
    13:00 +19°C° 0.8 mm 5 mps 743 mmHg 73%
    14:00 +19°C° 0.3 mm 5 mps 743 mmHg 69%
    15:00 +19°C° 0.3 mm 5 mps 743 mmHg 64%
    16:00 +19°C° 0.3 mm 6 mps 743 mmHg 59%
    17:00 +17°C° 0 mm 5 mps 743 mmHg 65%
    18:00 +15°C° 0 mm 4 mps 743 mmHg 71%
    19:00 +14°C° 0 mm 3 mps 744 mmHg 76%
    20:00 +13°C° 0 mm 2 mps 744 mmHg 80%
    21:00 +12°C° 0 mm 1 mps 744 mmHg 84%
    22:00 +10°C° 0 mm 0 mps 745 mmHg 87%
    23:00 +10°C° 0 mm 1 mps 745 mmHg 88%
    Show more